Joint Base Elmendorf-Richardson, AK

1:39 AM AKST on January 24, 2017 (GMT -0900)
Elmendorf Air Force Base

Weather History for PAED - January, 2013

Change the Weather History Date:

Wednesday, January 30, 2013

  Actual Average Record
Temperature  
Mean Temperature 20 °F -  
Max Temperature 27 °F 19 °F 46 °F (1981)
Min Temperature 14 °F 5 °F -20 °F (2004)
Degree Days  
Heating Degree Days 44    
Moisture  
Dew Point 16 °F    
Average Humidity 86    
Maximum Humidity 94    
Minimum Humidity 75    
Precipitation  
Precipitation 0.03 in - - ()
Sea Level Pressure  
Sea Level Pressure 29.76 in    
Wind  
Wind Speed 7 mph (ENE)    
Max Wind Speed 20 mph    
Max Gust Speed -    
Visibility 7 miles    
Events Rain , Snow    
Averages and records for this station are not official NWS values.
T = Trace of Precipitation, MM = Missing Value Source: NWS Daily Summary

Daily Weather History Graph

Daily Weather History Graph

Search for Another Location

Airport or City:

Trip Planner

Search our weather history database for the weather conditions in past years. The results will help you decide how hot, cold, wet, or windy it might be!

Date:

Astronomy

Jan. 30, 2013 Rise Set
Actual Time 9:23 AM AKST 5:02 PM AKST
Civil Twilight 8:33 AM AKST 5:52 PM AKST
Nautical Twilight 7:40 AM AKST 6:45 PM AKST
Astronomical Twilight 6:49 AM AKST 7:36 PM AKST
Moon 10:42 PM AKST (1/30) 9:36 AM AKST (1/30)
Length of Visible Light 9h 19m
Length of Day
7h 38m
Waning Gibbous, 86% of the Moon is Illuminated
Jan 30
Waning Gibbous
Feb 3
Last Quarter
Feb 9
New
Feb 17
First Quarter
Feb 25
Full

Hourly Weather History & Observations

Time (AKST) Temp. Windchill Dew Point Humidity Pressure Visibility Wind Dir Wind Speed Gust Speed Precip Events Conditions
12:55 AM 14.2 °F 1.4 °F 7.5 °F 75% 29.86 in 10.0 mi East 10.4 mph - N/A   Overcast
1:55 AM 14.5 °F 3.6 °F 7.9 °F 75% 29.87 in 10.0 mi ENE 8.1 mph - N/A   Overcast
2:55 AM 14.5 °F 4.6 °F 8.6 °F 77% 29.87 in 10.0 mi East 6.9 mph - N/A   Overcast
3:55 AM 15.1 °F 7.7 °F 10.6 °F 82% 29.86 in 10.0 mi Variable 4.6 mph - N/A   Overcast
4:43 AM 15.8 °F 6.1 °F 10.4 °F 79% 29.84 in 6.0 mi East 6.9 mph - N/A Snow Light Snow
4:55 AM 15.6 °F 5.9 °F 11.5 °F 84% 29.84 in 7.0 mi East 6.9 mph - 0.00 in Snow Light Snow
5:05 AM 15.8 °F 7.2 °F 12.2 °F 86% 29.84 in 2.5 mi Variable 5.8 mph - N/A Snow Light Snow
5:20 AM 15.8 °F 3.4 °F 12.2 °F 86% 29.84 in 3.0 mi ENE 10.4 mph - N/A Snow Light Snow
5:25 AM 15.8 °F 6.1 °F 12.2 °F 86% 29.84 in 2.5 mi Variable 6.9 mph - N/A Snow Light Snow
5:39 AM 15.8 °F 5.1 °F 12.2 °F 86% 29.84 in 3.0 mi ENE 8.1 mph - N/A Snow Light Snow
5:50 AM 15.8 °F 5.1 °F 12.2 °F 86% 29.83 in 2.5 mi ENE 8.1 mph - N/A Snow Light Snow
5:55 AM 16.0 °F 6.3 °F 12.2 °F 85% 29.83 in 2.0 mi East 6.9 mph - N/A Snow Light Snow
6:02 AM 15.8 °F 5.1 °F 12.2 °F 86% 29.83 in 1.5 mi ENE 8.1 mph - N/A Snow Light Snow
6:07 AM 15.8 °F 4.2 °F 12.2 °F 86% 29.83 in 1.5 mi East 9.2 mph - N/A Snow Light Snow
6:10 AM 15.8 °F 4.2 °F 12.2 °F 86% 29.82 in 1.2 mi ENE 9.2 mph - N/A Snow Light Snow
6:17 AM 15.8 °F 3.4 °F 12.2 °F 86% 29.82 in 1.5 mi East 10.4 mph - N/A Snow Light Snow
6:31 AM 15.8 °F 3.4 °F 12.2 °F 86% 29.82 in 2.0 mi ENE 10.4 mph - N/A Snow Light Snow
6:39 AM 15.8 °F 3.4 °F 12.2 °F 86% 29.81 in 3.0 mi East 10.4 mph - N/A Snow Light Snow
6:52 AM 15.8 °F 5.1 °F 12.2 °F 86% 29.81 in 2.5 mi ENE 8.1 mph - N/A Snow Light Snow
6:55 AM 16.3 °F 4.9 °F 12.9 °F 86% 29.81 in 2.5 mi ENE 9.2 mph - 0.02 in Snow Light Snow
7:49 AM 17.6 °F 8.2 °F 14.0 °F 86% 29.80 in 6.0 mi East 6.9 mph - N/A Snow Light Snow
7:55 AM 17.1 °F 6.6 °F 13.8 °F 87% 29.79 in 6.0 mi ENE 8.1 mph - 0.00 in Snow Light Snow
8:14 AM 17.6 °F 8.2 °F 14.0 °F 86% 29.78 in 5.0 mi East 6.9 mph - N/A Snow Light Snow
8:18 AM 17.6 °F 6.4 °F 14.0 °F 86% 29.78 in 6.0 mi East 9.2 mph - N/A Snow Light Snow
8:24 AM 17.6 °F 6.4 °F 14.0 °F 86% 29.78 in 8.0 mi ENE 9.2 mph - N/A Snow Light Snow
8:32 AM 17.6 °F 6.4 °F 14.0 °F 86% 29.78 in 10.0 mi East 9.2 mph - N/A Snow Light Snow
8:37 AM 17.6 °F 7.3 °F 14.0 °F 86% 29.78 in 10.0 mi ENE 8.1 mph - N/A Snow Light Snow
8:41 AM 17.6 °F 9.3 °F 14.0 °F 86% 29.78 in 10.0 mi Variable 5.8 mph - N/A   Overcast
8:55 AM 17.6 °F 12.3 °F 14.4 °F 87% 29.78 in 10.0 mi Variable 3.5 mph - 0.00 in   Overcast
9:00 AM 17.6 °F - 14.0 °F 86% 29.78 in 10.0 mi Calm Calm - N/A   Overcast
9:16 AM 17.6 °F 8.2 °F 14.0 °F 86% 29.77 in 10.0 mi East 6.9 mph - N/A   Overcast
9:19 AM 17.6 °F 9.3 °F 14.0 °F 86% 29.74 in 10.0 mi ENE 5.8 mph - N/A   Overcast
9:22 AM 17.6 °F 9.3 °F 14.0 °F 86% 29.76 in 10.0 mi ENE 5.8 mph - N/A   Overcast
9:24 AM 17.6 °F 9.3 °F 14.0 °F 86% 29.76 in 10.0 mi Variable 5.8 mph - N/A   Overcast
9:26 AM 17.6 °F 9.3 °F 14.0 °F 86% 29.76 in 10.0 mi ESE 5.8 mph - N/A   Overcast
9:29 AM 17.6 °F 9.3 °F 14.0 °F 86% 29.75 in 10.0 mi East 5.8 mph - N/A   Overcast
9:43 AM 17.6 °F 12.3 °F 14.0 °F 86% 29.75 in 10.0 mi Variable 3.5 mph - N/A   Overcast
9:55 AM 18.1 °F 10.0 °F 15.3 °F 88% 29.75 in 10.0 mi NE 5.8 mph - N/A   Overcast
9:58 AM 17.6 °F 9.3 °F 15.8 °F 93% 29.76 in 10.0 mi Variable 5.8 mph - N/A   Overcast
10:02 AM 17.6 °F 7.3 °F 15.8 °F 93% 29.75 in 10.0 mi NE 8.1 mph - N/A   Mostly Cloudy
10:44 AM 17.6 °F 10.7 °F 14.0 °F 86% 29.75 in 2.0 mi ESE 4.6 mph - N/A   Partly Cloudy
10:45 AM 17.6 °F 12.3 °F 14.0 °F 86% 29.75 in 1.5 mi East 3.5 mph - N/A   Partly Cloudy
10:54 AM 17.6 °F 9.3 °F 15.8 °F 93% 29.75 in 3.0 mi Variable 5.8 mph - N/A   Partly Cloudy
10:55 AM 18.5 °F 9.3 °F 15.3 °F 87% 29.75 in 6.0 mi East 6.9 mph - N/A   Partly Cloudy
11:06 AM 19.4 °F 9.5 °F 15.8 °F 86% 29.72 in 10.0 mi East 8.1 mph - N/A   Mostly Cloudy
11:55 AM 19.4 °F 12.8 °F 15.8 °F 86% 29.74 in 10.0 mi East 4.6 mph - N/A   Scattered Clouds
12:55 PM 20.3 °F 11.5 °F 16.7 °F 86% 29.73 in 10.0 mi Variable 6.9 mph - N/A   Partly Cloudy
12:59 PM 19.4 °F 14.3 °F 17.6 °F 93% 29.73 in 10.0 mi Variable 3.5 mph - N/A   Overcast
1:01 PM 19.4 °F 12.8 °F 17.6 °F 93% 29.73 in 10.0 mi Variable 4.6 mph - N/A   Overcast
1:55 PM 21.2 °F 6.0 °F 17.6 °F 86% 29.69 in 10.0 mi NNE 19.6 mph - N/A   Overcast
2:55 PM 22.3 °F - 18.5 °F 85% 29.68 in 10.0 mi Calm Calm - N/A   Mostly Cloudy
3:55 PM 23.5 °F - 19.2 °F 84% 29.67 in 10.0 mi Calm Calm - N/A   Mostly Cloudy
4:55 PM 23.7 °F 19.3 °F 19.6 °F 84% 29.68 in 10.0 mi Variable 3.5 mph - N/A   Mostly Cloudy
5:55 PM 22.8 °F - 19.4 °F 87% 29.68 in 10.0 mi Calm Calm - 0.00 in   Overcast
6:55 PM 24.6 °F 17.7 °F 20.5 °F 84% 29.68 in 10.0 mi Variable 5.8 mph - 0.00 in   Overcast
7:55 PM 23.7 °F 14.7 °F 20.1 °F 86% 29.70 in 10.0 mi SE 8.1 mph - N/A   Partly Cloudy
8:18 PM 24.8 °F 17.9 °F 21.2 °F 86% 29.70 in 10.0 mi East 5.8 mph - N/A Snow Light Snow
8:42 PM 24.8 °F 17.9 °F 21.2 °F 86% 29.70 in 8.0 mi East 5.8 mph - N/A Snow Light Snow
8:55 PM 24.8 °F 17.9 °F 21.0 °F 86% 29.70 in 3.0 mi East 5.8 mph - 0.00 in Snow Light Snow
9:46 PM 26.6 °F 20.0 °F 23.0 °F 86% 29.69 in 5.0 mi East 5.8 mph - N/A Snow Light Snow
9:55 PM 27.5 °F 21.1 °F 25.0 °F 90% 29.69 in 9.0 mi ENE 5.8 mph - 0.00 in Snow Light Snow
10:55 PM 26.4 °F - 24.4 °F 92% 29.69 in 10.0 mi Calm Calm - 0.00 in Snow Light Snow
11:03 PM 26.6 °F - 24.8 °F 93% 29.70 in 10.0 mi Calm Calm - N/A Snow Light Snow Grains
11:22 PM 26.6 °F 22.6 °F 24.8 °F 93% 29.70 in 6.0 mi ENE 3.5 mph - N/A Rain Light Freezing Rain
11:35 PM 26.6 °F - 24.8 °F 93% 29.68 in 6.0 mi Calm Calm - N/A Rain Light Freezing Rain
11:55 PM 26.8 °F 22.8 °F 25.2 °F 94% 29.70 in 6.0 mi East 3.5 mph - 0.01 in Rain Light Freezing Rain